Tulsa, OK

8:17 PM CST on February 24, 2017 (GMT -0600)
Tulsa International

Weather History for KTUL - May, 2013

Change the Weather History Date:

Sunday, May 26, 2013

  Actual Average Record
Temperature  
Mean Temperature 77 °F 72 °F  
Max Temperature 85 °F 82 °F 94 °F (1926)
Min Temperature 69 °F 62 °F 44 °F (1925)
Cooling Degree Days 12 7  
Month to date cooling degree days 101 128  
Year to date cooling degree days 137 193  
Growing Degree Days 26 (Base 50)    
Moisture  
Dew Point 66 °F    
Average Humidity 71    
Maximum Humidity 84    
Minimum Humidity 58    
Precipitation  
Precipitation 0.00 in 0.19 in 2.40 in (1984)
Month to date precipitation 2.62 4.97  
Year to date precipitation 11.79 15.56  
Sea Level Pressure  
Sea Level Pressure 29.98 in    
Wind  
Wind Speed 15 mph (South)    
Max Wind Speed 26 mph    
Max Gust Speed 33 mph    
Visibility 9 miles    
Events      
T = Trace of Precipitation, MM = Missing Value Source: NWS Daily Summary

Daily Weather History Graph

Daily Weather History Graph

Search for Another Location

Airport or City:

Trip Planner

Search our weather history database for the weather conditions in past years. The results will help you decide how hot, cold, wet, or windy it might be!

Date:

Astronomy

May. 26, 2013 Rise Set
Actual Time 6:10 AM CDT 8:31 PM CDT
Civil Twilight 5:40 AM CDT 9:01 PM CDT
Nautical Twilight 5:04 AM CDT 9:37 PM CDT
Astronomical Twilight 4:24 AM CDT 10:17 PM CDT
Moon 10:20 PM CDT (5/26) 7:39 AM CDT (5/26)
Length of Visible Light 15h 20m
Length of Day
14h 21m
Waning Gibbous, 96% of the Moon is Illuminated
May 26
Waning Gibbous
May 31
Last Quarter
Jun 8
New
Jun 16
First Quarter
Jun 23
Full

Hourly Weather History & Observations

Time (CDT) Temp. Heat Index Dew Point Humidity Pressure Visibility Wind Dir Wind Speed Gust Speed Precip Events Conditions
12:53 AM 73.9 °F - 66.9 °F 79% 30.03 in 9.0 mi SSE 8.1 mph - N/A   Scattered Clouds
1:53 AM 73.0 °F - 66.9 °F 81% 30.03 in 8.0 mi SSE 9.2 mph - N/A   Scattered Clouds
2:53 AM 72.0 °F - 66.9 °F 84% 30.02 in 10.0 mi SSE 8.1 mph - N/A   Overcast
3:53 AM 71.1 °F - 64.9 °F 81% 30.01 in 9.0 mi South 11.5 mph - N/A   Overcast
4:53 AM 70.0 °F - 64.0 °F 81% 30.01 in 9.0 mi SSE 8.1 mph - N/A   Overcast
5:53 AM 70.0 °F - 64.9 °F 84% 30.01 in 9.0 mi South 8.1 mph - N/A   Mostly Cloudy
6:53 AM 69.1 °F - 64.0 °F 84% 30.01 in 8.0 mi SSE 8.1 mph - N/A   Overcast
7:53 AM 71.1 °F - 64.9 °F 81% 30.01 in 8.0 mi South 15.0 mph 20.7 mph N/A   Mostly Cloudy
8:31 AM 73.0 °F - 66.0 °F 79% 30.04 in 8.0 mi South 12.7 mph - N/A   Mostly Cloudy
8:53 AM 73.9 °F - 66.9 °F 79% 30.02 in 8.0 mi South 15.0 mph 21.9 mph N/A   Mostly Cloudy
9:53 AM 75.9 °F - 68.0 °F 76% 30.03 in 8.0 mi South 12.7 mph - N/A   Mostly Cloudy
10:53 AM 78.1 °F - 66.9 °F 68% 30.02 in 9.0 mi South 19.6 mph 25.3 mph N/A   Mostly Cloudy
11:08 AM 80.1 °F 82.7 °F 68.0 °F 67% 30.04 in 10.0 mi South 18.4 mph - N/A   Mostly Cloudy
11:41 AM 81.0 °F 83.8 °F 68.0 °F 65% 30.03 in 10.0 mi South 17.3 mph 25.3 mph N/A   Mostly Cloudy
11:53 AM 81.0 °F 83.8 °F 68.0 °F 65% 30.00 in 10.0 mi South 18.4 mph 25.3 mph N/A   Mostly Cloudy
12:53 PM 81.0 °F 83.3 °F 66.9 °F 62% 29.99 in 10.0 mi South 21.9 mph 25.3 mph N/A   Overcast
1:53 PM 82.9 °F 85.8 °F 68.0 °F 60% 29.97 in 9.0 mi South 17.3 mph 28.8 mph N/A   Mostly Cloudy
2:53 PM 84.9 °F 88.8 °F 69.1 °F 59% 29.94 in 10.0 mi South 18.4 mph 26.5 mph N/A   Mostly Cloudy
3:53 PM 82.9 °F 85.4 °F 66.9 °F 58% 29.94 in 10.0 mi South 18.4 mph 27.6 mph N/A   Mostly Cloudy
4:53 PM 84.0 °F 87.0 °F 68.0 °F 58% 29.92 in 10.0 mi South 19.6 mph 27.6 mph N/A   Mostly Cloudy
5:53 PM 82.9 °F 85.4 °F 66.9 °F 58% 29.90 in 10.0 mi South 18.4 mph 26.5 mph N/A   Clear
6:53 PM 81.0 °F 83.0 °F 66.0 °F 60% 29.90 in 10.0 mi SSE 17.3 mph 25.3 mph N/A   Partly Cloudy
7:53 PM 80.1 °F 81.7 °F 64.0 °F 58% 29.90 in 10.0 mi South 20.7 mph 27.6 mph N/A   Scattered Clouds
8:53 PM 78.1 °F - 63.0 °F 60% 29.91 in 10.0 mi South 13.8 mph - N/A   Scattered Clouds
9:53 PM 75.9 °F - 63.0 °F 64% 29.93 in 10.0 mi South 12.7 mph - N/A   Mostly Cloudy
10:53 PM 75.0 °F - 63.0 °F 66% 29.92 in 10.0 mi SSE 15.0 mph - N/A   Scattered Clouds
11:53 PM 73.9 °F - 63.0 °F 68% 29.92 in 10.0 mi South 13.8 mph - N/A   Clear